GEFSGL_prec_meanprecacc_012.txt.gz
Total_Precipitation_Accumulation
0.00 0.00 0.00 0.00 0.01 0.01 0.01 0.01 0.02 0.02 0.02 0.03 0.04 0.04 0.04 0.04 0.05 0.07 0.07 0.06 0.06 0.06 0.05 0.06 0.06 0.06 0.08 0.08 0.11 0.15 0.17 0.20 0.19 0.09 0.07 0.14 0.20 0.24 0.29 0.27 0.22 0.18 0.13
0.00 0.00 0.00 0.01 0.01 0.02 0.02 0.02 0.03 0.03 0.04 0.05 0.05 0.05 0.05 0.05 0.05 0.07 0.06 0.05 0.06 0.06 0.06 0.06 0.06 0.06 0.07 0.08 0.11 0.13 0.14 0.17 0.20 0.14 0.11 0.16 0.22 0.30 0.36 0.34 0.29 0.23 0.18
0.00 0.00 0.00 0.01 0.02 0.02 0.03 0.03 0.04 0.04 0.05 0.06 0.06 0.06 0.05 0.05 0.06 0.06 0.05 0.05 0.05 0.05 0.06 0.08 0.08 0.09 0.09 0.10 0.13 0.14 0.15 0.16 0.22 0.25 0.21 0.21 0.26 0.37 0.44 0.40 0.30 0.24 0.18
0.00 0.00 0.01 0.01 0.02 0.03 0.04 0.05 0.05 0.05 0.06 0.05 0.04 0.04 0.05 0.05 0.04 0.03 0.03 0.03 0.04 0.05 0.06 0.08 0.09 0.11 0.12 0.13 0.13 0.15 0.18 0.20 0.19 0.21 0.22 0.26 0.31 0.38 0.40 0.40 0.29 0.23 0.18
0.00 0.01 0.01 0.02 0.04 0.05 0.06 0.07 0.06 0.06 0.04 0.03 0.03 0.03 0.05 0.04 0.02 0.01 0.01 0.02 0.03 0.05 0.06 0.08 0.08 0.09 0.11 0.12 0.13 0.16 0.21 0.22 0.19 0.17 0.19 0.24 0.31 0.34 0.31 0.28 0.24 0.20 0.14
0.01 0.02 0.03 0.04 0.05 0.06 0.06 0.06 0.05 0.04 0.02 0.02 0.02 0.02 0.03 0.02 0.01 0.01 0.00 0.01 0.03 0.06 0.09 0.08 0.04 0.04 0.06 0.10 0.15 0.17 0.19 0.17 0.17 0.18 0.18 0.16 0.19 0.21 0.19 0.18 0.16 0.17 0.12
0.02 0.03 0.04 0.04 0.04 0.05 0.04 0.03 0.03 0.02 0.02 0.02 0.02 0.02 0.02 0.01 0.00 0.00 0.00 0.01 0.04 0.08 0.09 0.06 0.03 0.02 0.04 0.06 0.09 0.12 0.14 0.16 0.16 0.17 0.16 0.11 0.14 0.18 0.16 0.18 0.13 0.14 0.14
0.02 0.02 0.03 0.03 0.02 0.03 0.02 0.02 0.02 0.02 0.02 0.02 0.02 0.01 0.02 0.01 0.00 0.00 0.00 0.01 0.04 0.05 0.05 0.04 0.03 0.04 0.05 0.07 0.09 0.13 0.19 0.19 0.15 0.14 0.15 0.16 0.22 0.20 0.12 0.11 0.10 0.17 0.18
0.01 0.02 0.02 0.01 0.01 0.01 0.01 0.02 0.02 0.02 0.02 0.01 0.01 0.01 0.01 0.01 0.00 0.00 0.00 0.01 0.01 0.02 0.03 0.04 0.04 0.07 0.07 0.13 0.17 0.22 0.30 0.34 0.27 0.23 0.26 0.35 0.38 0.26 0.14 0.12 0.14 0.17 0.12
0.01 0.01 0.00 0.00 0.00 0.01 0.01 0.02 0.02 0.02 0.01 0.01 0.01 0.01 0.01 0.01 0.00 0.00 0.00 0.00 0.00 0.00 0.02 0.04 0.07 0.11 0.11 0.19 0.21 0.24 0.32 0.36 0.28 0.24 0.29 0.39 0.38 0.33 0.28 0.23 0.18 0.11 0.05
0.00 0.00 0.00 0.00 0.00 0.00 0.01 0.02 0.02 0.01 0.01 0.01 0.01 0.01 0.01 0.00 0.00 0.00 0.00 0.00 0.00 0.01 0.02 0.06 0.10 0.13 0.13 0.20 0.25 0.27 0.36 0.37 0.28 0.22 0.25 0.29 0.33 0.33 0.29 0.30 0.21 0.10 0.05
0.00 0.00 0.01 0.00 0.00 0.00 0.00 0.01 0.01 0.01 0.00 0.00 0.00 0.00 0.00 0.00 0.00 0.00 0.00 0.00 0.00 0.01 0.04 0.10 0.12 0.11 0.13 0.21 0.24 0.31 0.45 0.47 0.32 0.22 0.18 0.18 0.20 0.24 0.24 0.19 0.13 0.08 0.06
0.00 0.01 0.00 0.00 0.00 0.00 0.00 0.00 0.00 0.00 0.00 0.00 0.00 0.00 0.00 0.00 0.00 0.00 0.00 0.00 0.00 0.01 0.04 0.14 0.14 0.09 0.16 0.26 0.35 0.42 0.50 0.47 0.34 0.23 0.17 0.14 0.13 0.13 0.15 0.15 0.12 0.07 0.06
0.00 0.00 0.00 0.00 0.00 0.00 0.00 0.00 0.00 0.00 0.00 0.00 0.00 0.00 0.00 0.01 0.01 0.01 0.01 0.00 0.00 0.01 0.03 0.09 0.12 0.10 0.16 0.30 0.41 0.47 0.47 0.45 0.39 0.28 0.21 0.16 0.13 0.12 0.13 0.11 0.09 0.06 0.06
0.00 0.00 0.00 0.00 0.00 0.00 0.00 0.00 0.00 0.00 0.00 0.00 0.00 0.00 0.01 0.01 0.01 0.00 0.01 0.00 0.00 0.01 0.02 0.04 0.05 0.06 0.12 0.22 0.31 0.36 0.35 0.36 0.39 0.32 0.25 0.20 0.17 0.15 0.14 0.12 0.09 0.06 0.06
0.00 0.00 0.00 0.00 0.00 0.00 0.00 0.00 0.00 0.00 0.00 0.00 0.00 0.00 0.00 0.00 0.00 0.00 0.00 0.00 0.00 0.01 0.02 0.03 0.07 0.10 0.15 0.21 0.26 0.27 0.27 0.27 0.29 0.27 0.24 0.20 0.17 0.15 0.14 0.11 0.07 0.05 0.04
0.00 0.00 0.00 0.00 0.00 0.00 0.00 0.00 0.00 0.00 0.00 0.00 0.00 0.00 0.00 0.00 0.00 0.00 0.00 0.00 0.00 0.01 0.01 0.03 0.06 0.12 0.19 0.21 0.22 0.22 0.21 0.21 0.20 0.19 0.19 0.18 0.15 0.12 0.10 0.07 0.04 0.03 0.02
0.00 0.00 0.00 0.00 0.00 0.00 0.00 0.00 0.00 0.00 0.01 0.01 0.00 0.00 0.00 0.00 0.00 0.00 0.01 0.01 0.01 0.01 0.01 0.03 0.06 0.10 0.17 0.21 0.20 0.19 0.18 0.17 0.15 0.14 0.15 0.14 0.11 0.08 0.06 0.03 0.02 0.01 0.01
0.00 0.00 0.00 0.00 0.00 0.00 0.00 0.00 0.00 0.00 0.00 0.00 0.00 0.00 0.00 0.00 0.01 0.02 0.02 0.02 0.02 0.02 0.02 0.03 0.05 0.08 0.11 0.15 0.15 0.14 0.13 0.12 0.11 0.09 0.10 0.11 0.11 0.07 0.04 0.02 0.01 0.01 0.01
0.00 0.00 0.00 0.00 0.00 0.00 0.00 0.00 0.00 0.00 0.00 0.01 0.01 0.00 0.01 0.01 0.01 0.02 0.03 0.03 0.04 0.03 0.03 0.04 0.05 0.07 0.09 0.11 0.10 0.09 0.08 0.08 0.07 0.07 0.08 0.09 0.09 0.07 0.04 0.02 0.02 0.01 0.01
0.00 0.00 0.00 0.00 0.00 0.00 0.00 0.00 0.00 0.00 0.00 0.01 0.01 0.01 0.01 0.02 0.02 0.03 0.04 0.05 0.06 0.05 0.04 0.04 0.04 0.06 0.08 0.09 0.09 0.08 0.09 0.08 0.07 0.07 0.07 0.08 0.08 0.06 0.05 0.03 0.02 0.01 0.00
0.00 0.00 0.00 0.00 0.00 0.00 0.00 0.00 0.00 0.00 0.00 0.00 0.00 0.01 0.01 0.02 0.03 0.04 0.05 0.06 0.07 0.07 0.05 0.04 0.03 0.04 0.06 0.07 0.07 0.08 0.09 0.08 0.08 0.07 0.07 0.07 0.07 0.06 0.04 0.03 0.01 0.01 0.01
0.00 0.00 0.00 0.00 0.00 0.00 0.00 0.00 0.00 0.00 0.00 0.00 0.00 0.01 0.01 0.03 0.05 0.07 0.09 0.09 0.09 0.09 0.08 0.05 0.04 0.03 0.04 0.05 0.06 0.07 0.07 0.07 0.08 0.08 0.08 0.07 0.05 0.04 0.03 0.02 0.02 0.01 0.01
0.00 0.00 0.00 0.00 0.00 0.00 0.00 0.00 0.00 0.00 0.00 0.00 0.00 0.01 0.02 0.03 0.05 0.08 0.10 0.12 0.14 0.15 0.13 0.10 0.07 0.06 0.05 0.06 0.09 0.10 0.07 0.07 0.09 0.10 0.09 0.06 0.04 0.04 0.03 0.02 0.01 0.01 0.00
0.00 0.00 0.00 0.00 0.00 0.00 0.00 0.00 0.00 0.00 0.00 0.00 0.00 0.01 0.02 0.03 0.04 0.06 0.08 0.11 0.14 0.19 0.20 0.19 0.16 0.13 0.11 0.09 0.08 0.06 0.07 0.09 0.08 0.08 0.09 0.06 0.04 0.03 0.03 0.02 0.01 0.01 0.00
0.00 0.00 0.00 0.00 0.00 0.00 0.00 0.00 0.00 0.00 0.00 0.00 0.00 0.01 0.01 0.03 0.04 0.05 0.06 0.08 0.10 0.14 0.18 0.21 0.22 0.18 0.14 0.12 0.10 0.10 0.09 0.06 0.03 0.03 0.08 0.07 0.04 0.04 0.03 0.02 0.01 0.01 0.01

GEFSGL_prec_meanprecacc_018.txt.gz
Total_Precipitation_Accumulation
0.00 0.00 0.00 0.00 0.01 0.01 0.01 0.02 0.02 0.02 0.03 0.04 0.04 0.04 0.04 0.05 0.06 0.07 0.07 0.07 0.06 0.06 0.05 0.06 0.06 0.07 0.09 0.10 0.13 0.17 0.21 0.25 0.24 0.11 0.08 0.14 0.21 0.24 0.29 0.28 0.26 0.23 0.19
0.00 0.00 0.00 0.01 0.01 0.02 0.02 0.02 0.03 0.04 0.04 0.05 0.05 0.05 0.05 0.05 0.05 0.07 0.06 0.05 0.06 0.06 0.06 0.06 0.06 0.07 0.08 0.10 0.13 0.15 0.17 0.20 0.24 0.18 0.12 0.16 0.22 0.30 0.37 0.37 0.35 0.30 0.24
0.00 0.00 0.00 0.01 0.02 0.02 0.03 0.03 0.04 0.05 0.05 0.06 0.06 0.06 0.05 0.05 0.06 0.06 0.05 0.05 0.05 0.05 0.06 0.08 0.08 0.09 0.10 0.12 0.15 0.16 0.17 0.19 0.25 0.28 0.23 0.22 0.26 0.37 0.47 0.46 0.37 0.31 0.24
0.00 0.00 0.01 0.01 0.02 0.03 0.04 0.05 0.05 0.06 0.06 0.06 0.04 0.04 0.05 0.05 0.04 0.03 0.03 0.03 0.04 0.05 0.06 0.08 0.10 0.12 0.14 0.15 0.15 0.15 0.19 0.22 0.22 0.24 0.24 0.27 0.32 0.40 0.46 0.49 0.37 0.28 0.22
0.00 0.01 0.01 0.02 0.04 0.05 0.06 0.07 0.07 0.06 0.04 0.03 0.03 0.03 0.05 0.04 0.02 0.01 0.01 0.02 0.03 0.05 0.06 0.09 0.09 0.11 0.14 0.14 0.14 0.17 0.23 0.26 0.24 0.22 0.23 0.27 0.33 0.39 0.37 0.33 0.29 0.24 0.17
0.01 0.02 0.03 0.04 0.05 0.06 0.06 0.06 0.05 0.04 0.02 0.02 0.02 0.03 0.03 0.02 0.01 0.01 0.00 0.01 0.03 0.06 0.09 0.08 0.05 0.05 0.07 0.11 0.15 0.19 0.22 0.24 0.25 0.25 0.24 0.20 0.23 0.26 0.23 0.23 0.21 0.20 0.16
0.02 0.03 0.04 0.04 0.04 0.05 0.04 0.04 0.03 0.02 0.02 0.02 0.02 0.02 0.02 0.01 0.00 0.00 0.00 0.01 0.04 0.08 0.09 0.06 0.03 0.03 0.04 0.06 0.09 0.14 0.18 0.24 0.26 0.25 0.21 0.14 0.18 0.22 0.21 0.23 0.17 0.17 0.19
0.02 0.02 0.03 0.03 0.02 0.03 0.02 0.02 0.02 0.02 0.02 0.02 0.02 0.01 0.02 0.01 0.00 0.00 0.00 0.01 0.04 0.05 0.05 0.04 0.03 0.04 0.05 0.07 0.09 0.15 0.24 0.26 0.21 0.18 0.18 0.19 0.26 0.24 0.16 0.15 0.13 0.20 0.21
0.02 0.02 0.02 0.01 0.01 0.01 0.01 0.02 0.02 0.02 0.02 0.02 0.01 0.01 0.01 0.01 0.00 0.00 0.00 0.01 0.01 0.02 0.03 0.04 0.05 0.07 0.08 0.13 0.18 0.26 0.39 0.45 0.34 0.27 0.30 0.42 0.46 0.33 0.19 0.14 0.17 0.20 0.14
0.01 0.01 0.00 0.00 0.00 0.01 0.01 0.02 0.02 0.02 0.02 0.01 0.01 0.01 0.01 0.01 0.00 0.00 0.00 0.00 0.00 0.00 0.02 0.04 0.08 0.12 0.12 0.21 0.26 0.34 0.47 0.53 0.38 0.29 0.37 0.49 0.47 0.40 0.36 0.29 0.23 0.15 0.08
0.00 0.00 0.00 0.00 0.00 0.00 0.01 0.02 0.02 0.01 0.01 0.01 0.01 0.01 0.01 0.00 0.00 0.00 0.00 0.00 0.00 0.01 0.03 0.07 0.11 0.16 0.16 0.24 0.34 0.41 0.56 0.59 0.42 0.29 0.30 0.36 0.40 0.39 0.36 0.36 0.26 0.14 0.07
0.00 0.01 0.01 0.00 0.00 0.00 0.01 0.01 0.01 0.01 0.01 0.00 0.00 0.00 0.00 0.00 0.00 0.00 0.00 0.00 0.01 0.02 0.06 0.13 0.15 0.16 0.17 0.29 0.38 0.51 0.69 0.71 0.47 0.29 0.21 0.20 0.23 0.27 0.29 0.24 0.16 0.09 0.06
0.00 0.01 0.00 0.00 0.00 0.00 0.00 0.00 0.00 0.00 0.00 0.00 0.00 0.00 0.00 0.00 0.00 0.00 0.00 0.00 0.01 0.02 0.08 0.19 0.18 0.13 0.23 0.39 0.54 0.65 0.75 0.70 0.50 0.31 0.21 0.17 0.15 0.15 0.18 0.17 0.13 0.08 0.06
0.00 0.00 0.00 0.00 0.00 0.00 0.00 0.00 0.00 0.00 0.00 0.00 0.00 0.00 0.00 0.01 0.01 0.01 0.01 0.00 0.00 0.02 0.05 0.13 0.16 0.16 0.27 0.47 0.62 0.70 0.72 0.69 0.56 0.38 0.26 0.20 0.16 0.15 0.15 0.12 0.10 0.08 0.08
0.00 0.00 0.00 0.00 0.00 0.00 0.00 0.00 0.00 0.00 0.00 0.00 0.00 0.00 0.01 0.01 0.01 0.01 0.01 0.01 0.01 0.03 0.04 0.06 0.09 0.15 0.27 0.41 0.53 0.58 0.56 0.57 0.56 0.42 0.31 0.25 0.22 0.18 0.17 0.14 0.11 0.09 0.08
0.00 0.00 0.00 0.00 0.00 0.00 0.00 0.00 0.00 0.00 0.00 0.00 0.00 0.00 0.00 0.01 0.01 0.00 0.00 0.01 0.02 0.04 0.04 0.07 0.14 0.22 0.32 0.41 0.47 0.49 0.46 0.45 0.44 0.37 0.31 0.26 0.22 0.19 0.18 0.14 0.10 0.07 0.06
0.00 0.00 0.00 0.00 0.00 0.00 0.00 0.00 0.00 0.00 0.01 0.01 0.00 0.00 0.00 0.00 0.01 0.01 0.00 0.01 0.02 0.03 0.04 0.09 0.16 0.26 0.35 0.39 0.42 0.42 0.39 0.37 0.33 0.29 0.26 0.23 0.19 0.16 0.13 0.09 0.06 0.04 0.03
0.00 0.00 0.00 0.00 0.00 0.00 0.00 0.00 0.00 0.01 0.01 0.01 0.01 0.00 0.00 0.01 0.01 0.01 0.02 0.02 0.02 0.03 0.06 0.11 0.17 0.23 0.31 0.35 0.35 0.35 0.34 0.30 0.26 0.22 0.21 0.20 0.16 0.12 0.08 0.05 0.03 0.02 0.01
0.00 0.00 0.00 0.00 0.00 0.00 0.00 0.00 0.00 0.00 0.01 0.01 0.01 0.01 0.01 0.02 0.02 0.03 0.04 0.03 0.04 0.05 0.08 0.11 0.16 0.19 0.23 0.26 0.26 0.25 0.24 0.22 0.19 0.16 0.16 0.16 0.15 0.11 0.06 0.04 0.02 0.01 0.01
0.00 0.00 0.00 0.00 0.00 0.00 0.00 0.00 0.00 0.00 0.01 0.01 0.02 0.02 0.03 0.04 0.05 0.05 0.05 0.04 0.05 0.06 0.08 0.11 0.15 0.17 0.17 0.18 0.16 0.15 0.14 0.13 0.12 0.11 0.12 0.12 0.12 0.09 0.05 0.03 0.02 0.02 0.02
0.00 0.00 0.00 0.00 0.00 0.00 0.00 0.00 0.00 0.00 0.01 0.01 0.02 0.03 0.05 0.07 0.08 0.08 0.08 0.07 0.08 0.07 0.07 0.09 0.11 0.14 0.15 0.14 0.13 0.12 0.12 0.11 0.10 0.10 0.10 0.10 0.10 0.08 0.06 0.04 0.02 0.01 0.01
0.00 0.00 0.00 0.00 0.00 0.00 0.00 0.00 0.00 0.00 0.01 0.01 0.01 0.02 0.05 0.07 0.09 0.11 0.12 0.11 0.10 0.09 0.08 0.07 0.08 0.11 0.14 0.14 0.13 0.12 0.12 0.12 0.11 0.10 0.10 0.09 0.09 0.07 0.05 0.03 0.02 0.01 0.01
0.00 0.00 0.00 0.00 0.00 0.00 0.00 0.00 0.00 0.00 0.00 0.01 0.01 0.01 0.03 0.06 0.11 0.15 0.17 0.16 0.15 0.13 0.11 0.08 0.09 0.10 0.11 0.12 0.13 0.13 0.12 0.11 0.12 0.11 0.11 0.09 0.07 0.06 0.04 0.03 0.02 0.01 0.01
0.00 0.00 0.00 0.00 0.00 0.00 0.00 0.00 0.00 0.00 0.00 0.00 0.01 0.01 0.03 0.05 0.09 0.14 0.18 0.21 0.22 0.21 0.19 0.15 0.13 0.12 0.12 0.12 0.14 0.15 0.12 0.11 0.12 0.13 0.11 0.07 0.05 0.05 0.04 0.03 0.02 0.01 0.01
0.00 0.00 0.00 0.00 0.00 0.00 0.00 0.00 0.00 0.00 0.00 0.00 0.00 0.01 0.02 0.04 0.06 0.09 0.13 0.17 0.22 0.26 0.27 0.26 0.23 0.19 0.16 0.13 0.11 0.10 0.11 0.13 0.12 0.10 0.11 0.07 0.05 0.04 0.03 0.02 0.02 0.01 0.00
0.00 0.00 0.00 0.00 0.00 0.00 0.00 0.00 0.00 0.00 0.00 0.00 0.00 0.01 0.02 0.03 0.05 0.07 0.09 0.11 0.13 0.19 0.24 0.28 0.29 0.23 0.18 0.15 0.13 0.13 0.12 0.08 0.05 0.04 0.09 0.08 0.05 0.04 0.03 0.02 0.01 0.01 0.01

GEFSGL_prec_meanprecacc_024.txt.gz
Total_Precipitation_Accumulation
0.00 0.00 0.00 0.00 0.01 0.01 0.01 0.02 0.02 0.02 0.03 0.04 0.04 0.04 0.04 0.05 0.06 0.07 0.07 0.07 0.06 0.06 0.05 0.06 0.06 0.07 0.09 0.10 0.13 0.18 0.22 0.27 0.28 0.13 0.09 0.14 0.21 0.25 0.29 0.28 0.26 0.23 0.20
0.00 0.00 0.00 0.01 0.01 0.02 0.02 0.02 0.03 0.04 0.04 0.05 0.05 0.05 0.05 0.05 0.05 0.07 0.06 0.05 0.06 0.06 0.06 0.06 0.06 0.07 0.08 0.10 0.13 0.16 0.18 0.22 0.27 0.21 0.13 0.17 0.22 0.30 0.37 0.37 0.35 0.31 0.26
0.00 0.00 0.00 0.01 0.02 0.02 0.03 0.03 0.04 0.05 0.05 0.06 0.06 0.06 0.05 0.05 0.06 0.06 0.05 0.05 0.05 0.05 0.06 0.08 0.08 0.09 0.10 0.12 0.15 0.17 0.19 0.21 0.27 0.31 0.24 0.22 0.27 0.37 0.48 0.47 0.37 0.32 0.26
0.00 0.00 0.01 0.01 0.02 0.03 0.04 0.05 0.05 0.06 0.06 0.06 0.04 0.04 0.05 0.05 0.04 0.03 0.03 0.03 0.04 0.05 0.06 0.08 0.10 0.12 0.15 0.16 0.16 0.18 0.22 0.23 0.23 0.25 0.26 0.28 0.33 0.41 0.47 0.50 0.40 0.31 0.25
0.00 0.01 0.01 0.02 0.04 0.05 0.06 0.07 0.07 0.06 0.04 0.03 0.03 0.03 0.05 0.04 0.02 0.01 0.01 0.02 0.03 0.05 0.06 0.09 0.09 0.11 0.15 0.16 0.17 0.20 0.25 0.28 0.25 0.24 0.25 0.29 0.35 0.40 0.39 0.37 0.33 0.27 0.19
0.01 0.02 0.03 0.04 0.05 0.06 0.06 0.06 0.05 0.04 0.02 0.02 0.02 0.03 0.03 0.02 0.01 0.01 0.00 0.01 0.03 0.06 0.09 0.08 0.05 0.05 0.07 0.11 0.16 0.20 0.24 0.27 0.29 0.30 0.29 0.24 0.25 0.29 0.27 0.28 0.25 0.24 0.19
0.02 0.03 0.04 0.04 0.04 0.05 0.04 0.04 0.03 0.02 0.02 0.02 0.02 0.02 0.02 0.01 0.00 0.00 0.00 0.01 0.04 0.08 0.09 0.06 0.03 0.03 0.04 0.06 0.10 0.14 0.19 0.27 0.34 0.35 0.31 0.20 0.22 0.26 0.26 0.28 0.21 0.20 0.22
0.02 0.02 0.03 0.03 0.02 0.03 0.02 0.02 0.02 0.02 0.02 0.02 0.02 0.01 0.02 0.01 0.00 0.00 0.00 0.01 0.04 0.05 0.05 0.04 0.03 0.04 0.05 0.08 0.10 0.16 0.26 0.31 0.31 0.29 0.29 0.27 0.31 0.29 0.20 0.19 0.17 0.22 0.23
0.02 0.02 0.02 0.01 0.01 0.01 0.01 0.02 0.02 0.02 0.02 0.02 0.01 0.01 0.01 0.01 0.00 0.00 0.00 0.01 0.01 0.02 0.03 0.04 0.05 0.07 0.08 0.15 0.20 0.29 0.45 0.56 0.49 0.42 0.42 0.49 0.52 0.39 0.23 0.18 0.21 0.22 0.18
0.01 0.01 0.00 0.00 0.00 0.01 0.01 0.02 0.02 0.02 0.02 0.01 0.01 0.01 0.01 0.01 0.00 0.00 0.00 0.00 0.01 0.01 0.02 0.04 0.08 0.13 0.13 0.23 0.29 0.40 0.58 0.71 0.56 0.44 0.45 0.55 0.52 0.45 0.42 0.35 0.27 0.19 0.11
0.00 0.00 0.00 0.00 0.00 0.00 0.01 0.02 0.02 0.01 0.01 0.01 0.01 0.01 0.01 0.00 0.00 0.00 0.00 0.01 0.01 0.02 0.04 0.08 0.12 0.18 0.18 0.27 0.42 0.52 0.73 0.80 0.61 0.42 0.37 0.39 0.42 0.42 0.40 0.40 0.29 0.16 0.08
0.00 0.01 0.01 0.00 0.00 0.00 0.01 0.01 0.01 0.01 0.01 0.00 0.00 0.00 0.00 0.00 0.00 0.00 0.00 0.01 0.02 0.04 0.09 0.16 0.18 0.19 0.21 0.36 0.50 0.68 0.90 0.93 0.64 0.38 0.25 0.23 0.25 0.29 0.31 0.26 0.17 0.10 0.07
0.00 0.01 0.00 0.00 0.00 0.00 0.00 0.00 0.00 0.00 0.00 0.00 0.00 0.00 0.00 0.00 0.00 0.00 0.00 0.00 0.02 0.04 0.11 0.23 0.22 0.19 0.32 0.52 0.73 0.88 0.99 0.91 0.62 0.37 0.24 0.19 0.16 0.16 0.18 0.18 0.14 0.09 0.07
0.00 0.00 0.00 0.00 0.00 0.00 0.00 0.00 0.00 0.00 0.00 0.00 0.00 0.01 0.01 0.01 0.01 0.01 0.01 0.02 0.03 0.04 0.08 0.16 0.22 0.26 0.43 0.67 0.86 0.95 0.96 0.87 0.66 0.41 0.28 0.22 0.17 0.16 0.16 0.13 0.11 0.09 0.10
0.00 0.00 0.00 0.00 0.00 0.00 0.00 0.00 0.00 0.00 0.00 0.01 0.01 0.02 0.02 0.02 0.02 0.02 0.03 0.05 0.06 0.08 0.08 0.10 0.16 0.26 0.44 0.63 0.76 0.79 0.76 0.72 0.63 0.45 0.32 0.26 0.23 0.20 0.19 0.16 0.13 0.11 0.11
0.00 0.00 0.00 0.00 0.00 0.00 0.00 0.00 0.00 0.00 0.00 0.01 0.01 0.02 0.02 0.02 0.01 0.01 0.03 0.05 0.07 0.09 0.09 0.15 0.24 0.36 0.50 0.62 0.68 0.68 0.62 0.57 0.49 0.40 0.32 0.27 0.24 0.21 0.20 0.16 0.12 0.09 0.10
0.00 0.00 0.00 0.00 0.00 0.00 0.00 0.00 0.00 0.00 0.01 0.01 0.01 0.01 0.01 0.01 0.01 0.01 0.02 0.04 0.06 0.08 0.11 0.19 0.29 0.42 0.54 0.59 0.60 0.57 0.52 0.47 0.38 0.32 0.28 0.25 0.21 0.18 0.15 0.12 0.08 0.07 0.07
0.00 0.00 0.00 0.00 0.00 0.00 0.00 0.00 0.00 0.01 0.01 0.02 0.01 0.01 0.01 0.01 0.02 0.02 0.03 0.03 0.05 0.08 0.15 0.23 0.31 0.38 0.47 0.52 0.50 0.49 0.47 0.41 0.32 0.26 0.24 0.22 0.18 0.14 0.11 0.08 0.05 0.04 0.04
0.00 0.00 0.00 0.00 0.00 0.00 0.00 0.00 0.00 0.00 0.01 0.01 0.01 0.02 0.02 0.03 0.03 0.04 0.05 0.05 0.08 0.13 0.18 0.24 0.29 0.32 0.35 0.38 0.38 0.38 0.36 0.32 0.27 0.22 0.20 0.19 0.18 0.14 0.09 0.05 0.04 0.03 0.03
0.00 0.00 0.00 0.00 0.00 0.00 0.00 0.00 0.00 0.00 0.01 0.02 0.03 0.03 0.04 0.06 0.06 0.07 0.06 0.06 0.09 0.13 0.18 0.24 0.26 0.26 0.25 0.25 0.24 0.22 0.22 0.21 0.19 0.18 0.17 0.16 0.15 0.12 0.07 0.04 0.03 0.03 0.02
0.00 0.00 0.00 0.00 0.00 0.00 0.00 0.00 0.00 0.00 0.01 0.02 0.03 0.04 0.07 0.09 0.11 0.11 0.11 0.11 0.12 0.13 0.15 0.19 0.21 0.22 0.21 0.18 0.17 0.16 0.16 0.17 0.15 0.15 0.15 0.14 0.12 0.10 0.07 0.04 0.03 0.01 0.01
0.00 0.00 0.00 0.00 0.00 0.00 0.00 0.00 0.00 0.00 0.01 0.01 0.02 0.03 0.07 0.09 0.12 0.15 0.16 0.16 0.15 0.15 0.14 0.14 0.16 0.18 0.20 0.19 0.16 0.15 0.15 0.16 0.15 0.15 0.14 0.12 0.11 0.09 0.06 0.04 0.02 0.01 0.01
0.00 0.00 0.00 0.00 0.00 0.00 0.00 0.00 0.00 0.00 0.00 0.01 0.01 0.02 0.04 0.08 0.13 0.18 0.21 0.21 0.19 0.17 0.15 0.12 0.15 0.17 0.18 0.17 0.16 0.16 0.15 0.15 0.15 0.14 0.14 0.12 0.10 0.07 0.05 0.03 0.02 0.01 0.01
0.00 0.00 0.00 0.00 0.00 0.00 0.00 0.00 0.00 0.00 0.00 0.00 0.01 0.02 0.04 0.07 0.11 0.17 0.21 0.24 0.25 0.25 0.23 0.19 0.18 0.18 0.18 0.17 0.18 0.17 0.14 0.14 0.15 0.16 0.14 0.10 0.07 0.05 0.04 0.03 0.02 0.01 0.01
0.00 0.00 0.00 0.00 0.00 0.00 0.00 0.00 0.00 0.00 0.00 0.00 0.01 0.01 0.03 0.04 0.07 0.11 0.15 0.20 0.25 0.29 0.30 0.30 0.28 0.24 0.20 0.17 0.14 0.12 0.13 0.15 0.13 0.11 0.12 0.08 0.05 0.04 0.03 0.02 0.02 0.01 0.01
0.00 0.00 0.00 0.00 0.00 0.00 0.00 0.00 0.00 0.00 0.00 0.00 0.00 0.01 0.02 0.04 0.06 0.08 0.10 0.12 0.15 0.21 0.27 0.32 0.34 0.27 0.21 0.17 0.15 0.14 0.13 0.09 0.06 0.05 0.10 0.08 0.06 0.04 0.03 0.02 0.01 0.01 0.01

GEFSGL_prec_meanprecacc_030.txt.gz
Total_Precipitation_Accumulation
0.01 0.01 0.01 0.01 0.01 0.01 0.01 0.02 0.02 0.02 0.03 0.04 0.04 0.04 0.04 0.05 0.06 0.07 0.07 0.07 0.07 0.06 0.06 0.07 0.07 0.07 0.09 0.10 0.13 0.18 0.22 0.29 0.30 0.14 0.10 0.15 0.23 0.27 0.31 0.31 0.27 0.25 0.21
0.03 0.02 0.01 0.01 0.01 0.02 0.02 0.02 0.03 0.04 0.04 0.05 0.05 0.05 0.05 0.05 0.06 0.07 0.07 0.06 0.06 0.06 0.06 0.07 0.06 0.07 0.08 0.10 0.14 0.16 0.19 0.24 0.30 0.24 0.16 0.19 0.24 0.32 0.39 0.39 0.37 0.32 0.28
0.02 0.01 0.01 0.01 0.02 0.02 0.03 0.03 0.04 0.05 0.05 0.06 0.06 0.06 0.05 0.05 0.06 0.07 0.06 0.06 0.06 0.06 0.07 0.08 0.08 0.10 0.11 0.12 0.16 0.18 0.20 0.22 0.31 0.36 0.28 0.24 0.28 0.39 0.49 0.48 0.39 0.35 0.29
0.01 0.00 0.01 0.01 0.02 0.03 0.04 0.05 0.05 0.06 0.06 0.06 0.05 0.04 0.05 0.06 0.05 0.04 0.04 0.04 0.04 0.05 0.06 0.09 0.10 0.13 0.15 0.16 0.17 0.19 0.24 0.27 0.28 0.31 0.30 0.30 0.34 0.42 0.49 0.54 0.43 0.36 0.29
0.01 0.01 0.01 0.02 0.04 0.05 0.06 0.07 0.07 0.06 0.04 0.04 0.03 0.04 0.06 0.05 0.03 0.02 0.01 0.02 0.03 0.05 0.06 0.09 0.09 0.12 0.16 0.17 0.18 0.23 0.30 0.33 0.31 0.29 0.29 0.31 0.37 0.43 0.43 0.42 0.39 0.33 0.23
0.02 0.02 0.03 0.04 0.05 0.06 0.06 0.06 0.05 0.04 0.03 0.03 0.03 0.03 0.03 0.02 0.01 0.01 0.00 0.01 0.03 0.07 0.10 0.08 0.05 0.06 0.07 0.12 0.18 0.22 0.28 0.32 0.35 0.36 0.34 0.28 0.28 0.32 0.33 0.36 0.33 0.30 0.24
0.03 0.03 0.04 0.04 0.04 0.05 0.04 0.04 0.03 0.03 0.02 0.02 0.02 0.02 0.02 0.02 0.00 0.00 0.00 0.01 0.04 0.08 0.10 0.07 0.04 0.03 0.05 0.08 0.11 0.16 0.21 0.30 0.40 0.44 0.40 0.28 0.28 0.33 0.35 0.37 0.27 0.26 0.27
0.02 0.03 0.03 0.03 0.03 0.03 0.03 0.03 0.03 0.02 0.02 0.02 0.02 0.01 0.02 0.01 0.00 0.00 0.00 0.01 0.04 0.06 0.06 0.05 0.04 0.05 0.07 0.09 0.11 0.17 0.27 0.34 0.38 0.38 0.41 0.40 0.43 0.38 0.29 0.26 0.23 0.28 0.27
0.02 0.02 0.02 0.01 0.01 0.01 0.02 0.02 0.02 0.02 0.02 0.02 0.01 0.01 0.01 0.01 0.00 0.00 0.00 0.01 0.02 0.02 0.03 0.04 0.06 0.09 0.09 0.16 0.22 0.32 0.48 0.62 0.60 0.57 0.57 0.64 0.64 0.47 0.28 0.22 0.25 0.27 0.22
0.01 0.01 0.00 0.00 0.00 0.01 0.01 0.02 0.02 0.02 0.02 0.01 0.01 0.01 0.01 0.01 0.00 0.00 0.00 0.01 0.01 0.01 0.02 0.05 0.09 0.14 0.15 0.26 0.33 0.45 0.64 0.78 0.67 0.58 0.59 0.67 0.59 0.49 0.46 0.40 0.32 0.23 0.15
0.00 0.00 0.00 0.00 0.00 0.00 0.01 0.02 0.02 0.01 0.01 0.01 0.01 0.01 0.01 0.01 0.00 0.00 0.00 0.01 0.02 0.03 0.05 0.09 0.14 0.21 0.21 0.32 0.48 0.59 0.80 0.89 0.72 0.54 0.46 0.45 0.45 0.44 0.42 0.42 0.31 0.18 0.11
0.00 0.01 0.01 0.00 0.00 0.00 0.01 0.01 0.01 0.01 0.01 0.00 0.01 0.01 0.01 0.01 0.01 0.00 0.00 0.01 0.02 0.04 0.11 0.19 0.23 0.25 0.28 0.45 0.58 0.76 1.00 1.04 0.73 0.47 0.30 0.26 0.27 0.32 0.33 0.28 0.19 0.11 0.09
0.00 0.01 0.00 0.00 0.00 0.00 0.00 0.00 0.00 0.00 0.00 0.00 0.01 0.01 0.01 0.01 0.01 0.01 0.01 0.01 0.02 0.05 0.14 0.29 0.32 0.29 0.44 0.64 0.85 1.00 1.10 1.00 0.69 0.41 0.26 0.21 0.19 0.19 0.21 0.21 0.17 0.11 0.10
0.00 0.00 0.00 0.00 0.00 0.00 0.00 0.00 0.00 0.00 0.00 0.01 0.01 0.02 0.02 0.02 0.02 0.02 0.03 0.03 0.04 0.06 0.11 0.24 0.35 0.41 0.57 0.80 0.97 1.04 1.03 0.94 0.70 0.44 0.31 0.25 0.20 0.19 0.20 0.18 0.16 0.13 0.13
0.00 0.00 0.00 0.00 0.00 0.00 0.00 0.00 0.00 0.00 0.01 0.01 0.03 0.03 0.04 0.04 0.03 0.04 0.06 0.07 0.08 0.10 0.13 0.18 0.26 0.38 0.55 0.72 0.83 0.85 0.81 0.76 0.66 0.47 0.35 0.29 0.26 0.23 0.23 0.20 0.17 0.14 0.15
0.00 0.00 0.00 0.00 0.00 0.00 0.00 0.00 0.00 0.00 0.00 0.01 0.02 0.03 0.03 0.03 0.02 0.02 0.04 0.06 0.09 0.13 0.15 0.23 0.35 0.47 0.61 0.70 0.74 0.73 0.66 0.60 0.52 0.42 0.35 0.31 0.27 0.24 0.24 0.20 0.15 0.13 0.13
0.00 0.00 0.00 0.00 0.00 0.00 0.00 0.00 0.00 0.01 0.01 0.01 0.01 0.02 0.02 0.02 0.02 0.02 0.03 0.06 0.08 0.12 0.16 0.27 0.39 0.52 0.63 0.66 0.65 0.61 0.56 0.50 0.42 0.34 0.31 0.28 0.25 0.22 0.19 0.16 0.13 0.11 0.11
0.00 0.00 0.00 0.00 0.00 0.00 0.00 0.00 0.01 0.01 0.02 0.03 0.02 0.01 0.02 0.02 0.02 0.03 0.04 0.04 0.06 0.11 0.20 0.31 0.39 0.46 0.54 0.58 0.56 0.54 0.50 0.44 0.35 0.29 0.28 0.26 0.22 0.18 0.15 0.12 0.10 0.08 0.07
0.00 0.00 0.00 0.00 0.00 0.00 0.00 0.00 0.00 0.01 0.02 0.02 0.02 0.02 0.02 0.03 0.04 0.05 0.06 0.06 0.11 0.17 0.24 0.30 0.35 0.38 0.41 0.44 0.44 0.42 0.39 0.36 0.30 0.26 0.24 0.24 0.23 0.18 0.13 0.09 0.07 0.05 0.04
0.00 0.00 0.00 0.00 0.00 0.00 0.00 0.00 0.00 0.01 0.02 0.03 0.04 0.04 0.05 0.06 0.07 0.07 0.07 0.08 0.12 0.17 0.23 0.29 0.31 0.31 0.30 0.30 0.29 0.27 0.26 0.25 0.23 0.22 0.22 0.21 0.20 0.16 0.11 0.07 0.05 0.04 0.03
0.00 0.00 0.00 0.00 0.00 0.00 0.00 0.00 0.00 0.01 0.01 0.02 0.03 0.05 0.09 0.10 0.12 0.13 0.12 0.13 0.16 0.18 0.20 0.23 0.25 0.26 0.25 0.22 0.21 0.20 0.20 0.21 0.19 0.19 0.19 0.18 0.16 0.14 0.10 0.07 0.04 0.02 0.01
0.00 0.00 0.00 0.00 0.00 0.00 0.00 0.00 0.00 0.00 0.01 0.02 0.02 0.03 0.08 0.09 0.13 0.16 0.18 0.19 0.20 0.20 0.19 0.19 0.20 0.22 0.24 0.23 0.21 0.19 0.20 0.20 0.20 0.19 0.18 0.17 0.15 0.12 0.08 0.06 0.03 0.02 0.01
0.00 0.00 0.00 0.00 0.00 0.00 0.00 0.00 0.00 0.00 0.01 0.01 0.02 0.02 0.05 0.09 0.14 0.20 0.24 0.24 0.23 0.22 0.19 0.16 0.19 0.22 0.23 0.22 0.20 0.19 0.19 0.19 0.20 0.19 0.18 0.15 0.13 0.10 0.07 0.05 0.03 0.02 0.01
0.00 0.00 0.00 0.00 0.00 0.00 0.00 0.00 0.00 0.00 0.00 0.01 0.01 0.02 0.04 0.08 0.13 0.19 0.25 0.28 0.29 0.29 0.27 0.23 0.22 0.23 0.22 0.21 0.21 0.20 0.17 0.17 0.19 0.20 0.17 0.13 0.09 0.08 0.05 0.04 0.02 0.02 0.01
0.00 0.00 0.00 0.00 0.00 0.00 0.00 0.00 0.00 0.00 0.00 0.00 0.01 0.02 0.03 0.05 0.08 0.13 0.18 0.24 0.29 0.34 0.35 0.34 0.32 0.28 0.23 0.19 0.17 0.14 0.16 0.18 0.16 0.14 0.16 0.11 0.07 0.06 0.05 0.03 0.02 0.01 0.01
0.00 0.00 0.00 0.00 0.00 0.00 0.00 0.00 0.00 0.00 0.00 0.00 0.00 0.01 0.02 0.04 0.06 0.08 0.11 0.14 0.18 0.25 0.31 0.37 0.38 0.31 0.23 0.18 0.16 0.16 0.14 0.10 0.06 0.06 0.13 0.12 0.08 0.06 0.05 0.03 0.02 0.01 0.01

GEFSGL_prec_meanprecacc_036.txt.gz
Total_Precipitation_Accumulation
0.05 0.04 0.04 0.03 0.02 0.01 0.01 0.02 0.02 0.02 0.03 0.04 0.04 0.04 0.04 0.05 0.06 0.08 0.08 0.08 0.09 0.08 0.08 0.09 0.10 0.10 0.12 0.12 0.15 0.19 0.23 0.30 0.31 0.15 0.10 0.15 0.23 0.28 0.32 0.33 0.30 0.27 0.23
0.06 0.05 0.04 0.02 0.02 0.02 0.02 0.02 0.03 0.04 0.04 0.05 0.05 0.06 0.05 0.05 0.06 0.08 0.09 0.08 0.09 0.09 0.09 0.10 0.09 0.09 0.11 0.12 0.15 0.17 0.20 0.25 0.32 0.25 0.17 0.20 0.26 0.34 0.41 0.42 0.38 0.33 0.30
0.05 0.03 0.02 0.02 0.02 0.03 0.03 0.04 0.05 0.05 0.06 0.06 0.07 0.07 0.06 0.06 0.08 0.10 0.09 0.08 0.08 0.08 0.09 0.10 0.10 0.11 0.12 0.14 0.17 0.19 0.21 0.24 0.33 0.39 0.31 0.27 0.31 0.40 0.51 0.50 0.41 0.39 0.32
0.04 0.03 0.03 0.03 0.04 0.05 0.05 0.06 0.06 0.06 0.07 0.06 0.06 0.05 0.07 0.08 0.07 0.05 0.05 0.05 0.05 0.06 0.07 0.10 0.11 0.14 0.17 0.18 0.19 0.20 0.26 0.30 0.31 0.35 0.33 0.32 0.36 0.43 0.52 0.58 0.47 0.40 0.33
0.05 0.04 0.05 0.05 0.06 0.07 0.07 0.08 0.08 0.07 0.06 0.05 0.05 0.06 0.07 0.07 0.03 0.02 0.02 0.02 0.04 0.05 0.07 0.09 0.10 0.13 0.17 0.19 0.20 0.25 0.33 0.38 0.35 0.34 0.33 0.34 0.39 0.46 0.48 0.48 0.44 0.37 0.26
0.08 0.08 0.07 0.06 0.07 0.08 0.08 0.08 0.07 0.07 0.06 0.05 0.04 0.04 0.04 0.03 0.01 0.01 0.00 0.01 0.03 0.07 0.10 0.09 0.06 0.07 0.09 0.13 0.20 0.26 0.32 0.38 0.40 0.41 0.39 0.32 0.32 0.37 0.39 0.43 0.40 0.37 0.28
0.10 0.09 0.08 0.07 0.06 0.06 0.06 0.06 0.06 0.05 0.04 0.03 0.03 0.02 0.03 0.02 0.00 0.00 0.00 0.01 0.05 0.09 0.12 0.09 0.06 0.04 0.07 0.11 0.15 0.19 0.24 0.34 0.45 0.50 0.47 0.33 0.34 0.40 0.45 0.47 0.36 0.35 0.35
0.08 0.07 0.06 0.04 0.04 0.05 0.05 0.04 0.03 0.03 0.03 0.03 0.02 0.02 0.02 0.01 0.00 0.00 0.00 0.01 0.05 0.07 0.08 0.07 0.08 0.08 0.10 0.13 0.14 0.19 0.29 0.36 0.41 0.43 0.46 0.46 0.50 0.47 0.40 0.37 0.33 0.37 0.34
0.05 0.04 0.03 0.02 0.02 0.02 0.02 0.02 0.02 0.03 0.03 0.02 0.02 0.02 0.02 0.02 0.00 0.00 0.00 0.01 0.02 0.03 0.04 0.06 0.08 0.11 0.12 0.18 0.25 0.34 0.50 0.64 0.64 0.62 0.64 0.72 0.74 0.58 0.38 0.32 0.35 0.36 0.29
0.02 0.01 0.01 0.01 0.01 0.01 0.02 0.02 0.03 0.03 0.02 0.01 0.01 0.02 0.02 0.03 0.01 0.00 0.00 0.01 0.02 0.02 0.03 0.05 0.10 0.16 0.17 0.28 0.36 0.49 0.67 0.81 0.71 0.64 0.67 0.77 0.69 0.59 0.55 0.48 0.41 0.32 0.23
0.01 0.00 0.00 0.00 0.00 0.01 0.01 0.02 0.02 0.02 0.02 0.02 0.02 0.02 0.03 0.02 0.02 0.00 0.00 0.01 0.02 0.04 0.07 0.11 0.16 0.24 0.24 0.36 0.52 0.62 0.84 0.93 0.77 0.59 0.52 0.52 0.52 0.50 0.48 0.48 0.38 0.26 0.19
0.00 0.01 0.01 0.00 0.00 0.00 0.01 0.01 0.02 0.02 0.01 0.01 0.01 0.02 0.02 0.03 0.02 0.01 0.00 0.01 0.02 0.05 0.13 0.22 0.26 0.29 0.32 0.49 0.62 0.80 1.04 1.10 0.78 0.52 0.36 0.31 0.33 0.37 0.38 0.33 0.25 0.18 0.15
0.00 0.01 0.00 0.00 0.00 0.00 0.01 0.01 0.01 0.01 0.01 0.01 0.01 0.02 0.02 0.02 0.02 0.01 0.01 0.01 0.03 0.07 0.17 0.33 0.36 0.34 0.49 0.70 0.89 1.03 1.14 1.04 0.74 0.46 0.32 0.26 0.23 0.24 0.27 0.27 0.23 0.17 0.15
0.00 0.00 0.00 0.00 0.00 0.00 0.00 0.00 0.01 0.01 0.01 0.02 0.03 0.03 0.03 0.03 0.03 0.03 0.03 0.04 0.05 0.07 0.15 0.30 0.42 0.47 0.63 0.85 1.02 1.08 1.07 0.97 0.74 0.48 0.35 0.30 0.26 0.25 0.26 0.24 0.21 0.18 0.18
0.00 0.00 0.00 0.00 0.00 0.00 0.00 0.00 0.01 0.01 0.01 0.02 0.04 0.05 0.06 0.05 0.04 0.05 0.07 0.08 0.09 0.12 0.16 0.21 0.29 0.42 0.60 0.77 0.87 0.90 0.86 0.80 0.70 0.51 0.39 0.34 0.32 0.29 0.29 0.25 0.21 0.18 0.19
0.00 0.00 0.00 0.00 0.00 0.00 0.01 0.01 0.00 0.00 0.00 0.01 0.02 0.04 0.05 0.04 0.03 0.03 0.05 0.08 0.11 0.16 0.18 0.26 0.38 0.50 0.65 0.75 0.79 0.78 0.71 0.65 0.56 0.46 0.40 0.36 0.33 0.30 0.30 0.25 0.19 0.17 0.18
0.00 0.00 0.00 0.00 0.00 0.00 0.00 0.01 0.02 0.02 0.01 0.01 0.01 0.03 0.03 0.03 0.02 0.02 0.04 0.06 0.09 0.14 0.18 0.30 0.43 0.55 0.66 0.70 0.70 0.66 0.61 0.56 0.47 0.39 0.35 0.33 0.30 0.27 0.24 0.21 0.17 0.15 0.15
0.00 0.00 0.00 0.00 0.00 0.00 0.01 0.01 0.02 0.03 0.04 0.05 0.03 0.02 0.02 0.02 0.03 0.03 0.04 0.05 0.07 0.12 0.22 0.34 0.44 0.50 0.58 0.63 0.61 0.59 0.56 0.49 0.40 0.35 0.34 0.32 0.27 0.23 0.20 0.17 0.14 0.12 0.10
0.00 0.00 0.00 0.00 0.00 0.00 0.01 0.01 0.02 0.02 0.03 0.04 0.04 0.03 0.03 0.04 0.04 0.05 0.06 0.07 0.13 0.19 0.26 0.34 0.39 0.42 0.46 0.49 0.49 0.47 0.44 0.41 0.36 0.32 0.31 0.31 0.29 0.23 0.17 0.12 0.09 0.07 0.06
0.00 0.00 0.00 0.00 0.00 0.00 0.01 0.01 0.01 0.02 0.03 0.04 0.05 0.05 0.05 0.07 0.08 0.08 0.08 0.09 0.14 0.19 0.25 0.32 0.35 0.35 0.34 0.35 0.34 0.32 0.31 0.30 0.28 0.28 0.28 0.27 0.26 0.21 0.14 0.10 0.07 0.06 0.04
0.00 0.00 0.00 0.00 0.00 0.00 0.00 0.01 0.01 0.01 0.02 0.04 0.04 0.05 0.09 0.11 0.14 0.14 0.14 0.16 0.19 0.21 0.23 0.26 0.29 0.30 0.28 0.25 0.25 0.25 0.26 0.27 0.26 0.26 0.25 0.24 0.21 0.17 0.12 0.08 0.05 0.03 0.02
0.00 0.00 0.00 0.00 0.00 0.00 0.00 0.00 0.00 0.01 0.01 0.02 0.03 0.04 0.09 0.10 0.14 0.18 0.20 0.22 0.23 0.23 0.22 0.22 0.23 0.26 0.28 0.26 0.25 0.24 0.24 0.26 0.25 0.25 0.24 0.21 0.18 0.15 0.10 0.07 0.04 0.02 0.02
0.00 0.00 0.00 0.00 0.00 0.00 0.00 0.00 0.00 0.00 0.01 0.01 0.02 0.03 0.06 0.10 0.16 0.23 0.27 0.27 0.26 0.24 0.21 0.19 0.22 0.25 0.26 0.24 0.23 0.23 0.22 0.23 0.25 0.24 0.23 0.19 0.15 0.12 0.09 0.06 0.04 0.02 0.01
0.00 0.00 0.00 0.00 0.00 0.00 0.00 0.00 0.00 0.00 0.00 0.01 0.01 0.02 0.05 0.09 0.15 0.22 0.28 0.31 0.32 0.32 0.29 0.26 0.25 0.26 0.24 0.23 0.23 0.21 0.18 0.18 0.21 0.23 0.21 0.17 0.12 0.09 0.06 0.04 0.03 0.02 0.01
0.00 0.00 0.00 0.00 0.00 0.00 0.00 0.00 0.00 0.00 0.00 0.00 0.01 0.02 0.03 0.05 0.09 0.14 0.20 0.26 0.32 0.36 0.37 0.36 0.33 0.29 0.25 0.20 0.17 0.14 0.16 0.19 0.17 0.15 0.19 0.15 0.09 0.07 0.05 0.04 0.02 0.02 0.01
0.00 0.00 0.00 0.00 0.00 0.00 0.00 0.00 0.00 0.00 0.00 0.00 0.00 0.01 0.02 0.04 0.06 0.09 0.13 0.16 0.20 0.27 0.33 0.38 0.39 0.32 0.23 0.18 0.16 0.16 0.14 0.10 0.07 0.06 0.15 0.15 0.10 0.07 0.05 0.03 0.02 0.01 0.01

GEFSGL_prec_meanprecacc_042.txt.gz
Total_Precipitation_Accumulation
0.07 0.06 0.06 0.05 0.04 0.03 0.03 0.03 0.03 0.03 0.03 0.04 0.04 0.05 0.05 0.05 0.06 0.08 0.09 0.09 0.09 0.08 0.08 0.09 0.10 0.11 0.12 0.12 0.15 0.20 0.24 0.30 0.32 0.15 0.10 0.15 0.23 0.28 0.32 0.33 0.30 0.27 0.23
0.07 0.06 0.05 0.04 0.03 0.03 0.03 0.03 0.04 0.05 0.05 0.06 0.06 0.06 0.06 0.06 0.06 0.09 0.09 0.08 0.09 0.09 0.09 0.10 0.09 0.09 0.11 0.12 0.15 0.18 0.20 0.25 0.33 0.25 0.17 0.20 0.26 0.34 0.41 0.42 0.38 0.33 0.30
0.06 0.04 0.03 0.03 0.03 0.04 0.05 0.05 0.06 0.06 0.07 0.07 0.07 0.07 0.06 0.07 0.08 0.10 0.09 0.08 0.08 0.08 0.09 0.11 0.10 0.11 0.12 0.14 0.18 0.19 0.21 0.24 0.33 0.40 0.31 0.27 0.31 0.40 0.51 0.50 0.41 0.39 0.32
0.04 0.03 0.03 0.04 0.06 0.07 0.07 0.07 0.07 0.07 0.08 0.07 0.06 0.06 0.07 0.08 0.07 0.06 0.05 0.05 0.06 0.06 0.07 0.10 0.11 0.14 0.17 0.19 0.19 0.21 0.26 0.30 0.32 0.36 0.34 0.33 0.37 0.43 0.53 0.58 0.48 0.41 0.34
0.05 0.06 0.07 0.07 0.07 0.08 0.08 0.09 0.09 0.08 0.07 0.06 0.06 0.06 0.08 0.07 0.03 0.02 0.02 0.02 0.04 0.05 0.07 0.09 0.10 0.13 0.18 0.20 0.22 0.26 0.35 0.40 0.37 0.36 0.36 0.37 0.40 0.47 0.49 0.50 0.47 0.38 0.27
0.09 0.10 0.09 0.08 0.09 0.10 0.09 0.09 0.08 0.08 0.07 0.05 0.05 0.04 0.04 0.03 0.01 0.01 0.00 0.01 0.03 0.07 0.10 0.09 0.06 0.07 0.10 0.14 0.21 0.28 0.35 0.41 0.44 0.46 0.43 0.36 0.34 0.38 0.42 0.46 0.44 0.40 0.31
0.13 0.12 0.11 0.09 0.08 0.08 0.07 0.08 0.07 0.06 0.04 0.03 0.03 0.03 0.03 0.02 0.00 0.00 0.00 0.01 0.05 0.09 0.12 0.09 0.06 0.04 0.08 0.12 0.16 0.20 0.26 0.36 0.48 0.54 0.51 0.37 0.37 0.43 0.50 0.53 0.41 0.40 0.39
0.12 0.10 0.09 0.07 0.06 0.06 0.06 0.05 0.04 0.03 0.03 0.03 0.02 0.02 0.02 0.01 0.00 0.00 0.00 0.01 0.05 0.07 0.08 0.08 0.08 0.09 0.10 0.13 0.15 0.20 0.30 0.37 0.43 0.45 0.49 0.49 0.53 0.51 0.45 0.43 0.39 0.42 0.38
0.08 0.07 0.05 0.04 0.03 0.03 0.02 0.02 0.02 0.03 0.03 0.02 0.02 0.02 0.02 0.02 0.00 0.00 0.00 0.01 0.02 0.03 0.04 0.06 0.08 0.11 0.12 0.19 0.26 0.35 0.51 0.65 0.65 0.64 0.67 0.76 0.79 0.63 0.44 0.37 0.41 0.42 0.34
0.05 0.04 0.02 0.01 0.01 0.01 0.02 0.02 0.03 0.03 0.02 0.01 0.01 0.02 0.03 0.03 0.01 0.00 0.00 0.01 0.02 0.02 0.03 0.06 0.11 0.17 0.18 0.29 0.37 0.50 0.69 0.82 0.72 0.65 0.69 0.80 0.72 0.64 0.61 0.53 0.47 0.39 0.30
0.02 0.01 0.01 0.01 0.01 0.01 0.01 0.02 0.02 0.02 0.02 0.02 0.02 0.02 0.03 0.03 0.02 0.00 0.00 0.01 0.03 0.04 0.07 0.12 0.17 0.25 0.25 0.37 0.53 0.64 0.86 0.94 0.78 0.61 0.55 0.54 0.54 0.53 0.51 0.52 0.43 0.32 0.26
0.00 0.01 0.01 0.00 0.00 0.00 0.01 0.01 0.02 0.02 0.01 0.01 0.01 0.02 0.02 0.03 0.02 0.01 0.00 0.01 0.03 0.06 0.14 0.23 0.27 0.30 0.33 0.50 0.63 0.81 1.06 1.11 0.80 0.54 0.39 0.34 0.36 0.40 0.42 0.37 0.29 0.23 0.21
0.01 0.01 0.01 0.00 0.00 0.00 0.01 0.01 0.01 0.01 0.01 0.01 0.01 0.02 0.02 0.02 0.02 0.01 0.01 0.01 0.03 0.07 0.18 0.35 0.37 0.35 0.50 0.71 0.90 1.04 1.15 1.05 0.75 0.49 0.35 0.30 0.27 0.28 0.30 0.31 0.27 0.22 0.19
0.00 0.01 0.01 0.00 0.00 0.00 0.00 0.00 0.01 0.01 0.01 0.02 0.03 0.03 0.03 0.03 0.03 0.03 0.03 0.04 0.06 0.08 0.16 0.31 0.43 0.48 0.64 0.87 1.03 1.09 1.08 0.99 0.76 0.51 0.38 0.33 0.29 0.28 0.29 0.27 0.25 0.22 0.22
0.00 0.01 0.01 0.00 0.00 0.00 0.01 0.00 0.01 0.01 0.01 0.02 0.04 0.05 0.06 0.05 0.04 0.05 0.07 0.08 0.09 0.13 0.17 0.22 0.30 0.42 0.60 0.78 0.89 0.92 0.87 0.82 0.72 0.54 0.42 0.38 0.35 0.33 0.32 0.28 0.24 0.21 0.22
0.01 0.01 0.00 0.00 0.00 0.00 0.01 0.01 0.00 0.00 0.01 0.01 0.03 0.05 0.05 0.05 0.03 0.03 0.05 0.08 0.12 0.16 0.19 0.27 0.39 0.52 0.66 0.76 0.82 0.80 0.74 0.68 0.60 0.50 0.43 0.39 0.36 0.33 0.32 0.27 0.21 0.19 0.21
0.00 0.00 0.00 0.00 0.00 0.00 0.01 0.02 0.03 0.02 0.02 0.02 0.01 0.03 0.03 0.03 0.02 0.02 0.04 0.07 0.10 0.14 0.19 0.31 0.45 0.58 0.69 0.73 0.73 0.70 0.66 0.60 0.52 0.44 0.39 0.36 0.32 0.29 0.26 0.22 0.19 0.18 0.17
0.00 0.00 0.00 0.00 0.00 0.00 0.01 0.02 0.03 0.04 0.05 0.05 0.03 0.02 0.02 0.03 0.03 0.03 0.04 0.05 0.07 0.13 0.23 0.36 0.46 0.53 0.61 0.66 0.64 0.63 0.60 0.53 0.45 0.40 0.38 0.35 0.29 0.25 0.21 0.18 0.16 0.14 0.12
0.00 0.00 0.00 0.00 0.00 0.00 0.01 0.01 0.02 0.03 0.03 0.04 0.04 0.03 0.03 0.04 0.04 0.06 0.07 0.07 0.13 0.20 0.28 0.36 0.42 0.45 0.49 0.53 0.53 0.52 0.49 0.46 0.40 0.36 0.34 0.34 0.32 0.25 0.19 0.14 0.11 0.10 0.08
0.00 0.00 0.00 0.00 0.00 0.00 0.01 0.01 0.01 0.02 0.03 0.04 0.05 0.05 0.05 0.07 0.08 0.09 0.09 0.10 0.15 0.21 0.28 0.35 0.38 0.37 0.36 0.38 0.38 0.36 0.35 0.35 0.33 0.32 0.31 0.30 0.28 0.22 0.16 0.11 0.09 0.07 0.06
0.00 0.00 0.00 0.00 0.00 0.00 0.00 0.01 0.01 0.01 0.02 0.04 0.05 0.06 0.10 0.12 0.15 0.16 0.16 0.17 0.21 0.24 0.26 0.29 0.31 0.32 0.30 0.28 0.28 0.28 0.29 0.29 0.28 0.28 0.27 0.26 0.22 0.18 0.13 0.09 0.06 0.04 0.03
0.00 0.00 0.00 0.00 0.00 0.00 0.00 0.00 0.00 0.01 0.01 0.02 0.03 0.05 0.11 0.12 0.16 0.20 0.22 0.24 0.26 0.27 0.26 0.26 0.26 0.28 0.29 0.28 0.27 0.26 0.26 0.27 0.27 0.26 0.25 0.22 0.19 0.15 0.11 0.07 0.04 0.03 0.02
0.00 0.00 0.00 0.00 0.00 0.00 0.00 0.00 0.00 0.00 0.01 0.01 0.02 0.03 0.06 0.11 0.18 0.25 0.29 0.30 0.29 0.28 0.24 0.22 0.24 0.27 0.27 0.25 0.24 0.24 0.23 0.24 0.25 0.25 0.24 0.20 0.16 0.12 0.09 0.06 0.04 0.02 0.01
0.00 0.00 0.00 0.00 0.00 0.00 0.00 0.00 0.00 0.00 0.00 0.01 0.02 0.03 0.06 0.11 0.17 0.25 0.31 0.34 0.35 0.35 0.32 0.28 0.26 0.27 0.25 0.23 0.23 0.22 0.18 0.19 0.21 0.23 0.22 0.17 0.12 0.09 0.06 0.04 0.03 0.02 0.01
0.00 0.00 0.00 0.00 0.00 0.00 0.00 0.00 0.00 0.00 0.00 0.00 0.01 0.02 0.03 0.06 0.11 0.16 0.23 0.29 0.34 0.38 0.39 0.37 0.34 0.30 0.25 0.20 0.17 0.14 0.16 0.19 0.17 0.16 0.19 0.15 0.09 0.07 0.05 0.04 0.02 0.02 0.01
0.00 0.00 0.00 0.00 0.00 0.00 0.00 0.00 0.00 0.00 0.00 0.00 0.00 0.01 0.02 0.05 0.07 0.11 0.14 0.18 0.22 0.28 0.34 0.39 0.40 0.32 0.24 0.19 0.17 0.16 0.14 0.10 0.07 0.06 0.15 0.15 0.10 0.07 0.05 0.03 0.02 0.01 0.01

GEFSGL_prec_meanprecacc_048.txt.gz
Total_Precipitation_Accumulation
0.09 0.08 0.07 0.06 0.05 0.04 0.04 0.04 0.04 0.04 0.04 0.05 0.05 0.05 0.06 0.06 0.07 0.09 0.09 0.09 0.09 0.09 0.08 0.09 0.10 0.11 0.12 0.12 0.15 0.20 0.24 0.31 0.32 0.15 0.10 0.15 0.23 0.28 0.32 0.33 0.30 0.27 0.23
0.08 0.07 0.05 0.04 0.04 0.04 0.04 0.04 0.05 0.05 0.06 0.07 0.07 0.07 0.07 0.06 0.07 0.09 0.09 0.08 0.09 0.09 0.09 0.10 0.09 0.09 0.11 0.12 0.15 0.18 0.20 0.25 0.33 0.26 0.17 0.20 0.26 0.34 0.41 0.42 0.38 0.33 0.30
0.06 0.04 0.04 0.03 0.04 0.05 0.05 0.06 0.07 0.07 0.08 0.09 0.09 0.08 0.07 0.08 0.09 0.10 0.09 0.08 0.08 0.08 0.09 0.11 0.10 0.11 0.12 0.14 0.18 0.19 0.21 0.24 0.34 0.40 0.31 0.27 0.31 0.40 0.52 0.50 0.41 0.39 0.32
0.05 0.04 0.04 0.05 0.06 0.07 0.08 0.08 0.08 0.09 0.10 0.09 0.08 0.07 0.08 0.09 0.07 0.06 0.05 0.05 0.06 0.06 0.07 0.10 0.11 0.14 0.17 0.19 0.19 0.21 0.26 0.31 0.33 0.37 0.35 0.34 0.37 0.44 0.53 0.59 0.49 0.41 0.34
0.06 0.06 0.07 0.08 0.08 0.09 0.10 0.11 0.11 0.10 0.08 0.07 0.07 0.07 0.08 0.07 0.03 0.02 0.02 0.02 0.04 0.05 0.07 0.09 0.10 0.13 0.18 0.21 0.23 0.28 0.36 0.41 0.39 0.38 0.37 0.38 0.42 0.48 0.50 0.51 0.48 0.39 0.27
0.10 0.11 0.11 0.10 0.10 0.11 0.11 0.11 0.10 0.09 0.07 0.06 0.05 0.04 0.04 0.03 0.01 0.01 0.00 0.01 0.03 0.07 0.10 0.09 0.06 0.07 0.10 0.15 0.22 0.29 0.37 0.43 0.46 0.48 0.47 0.39 0.36 0.40 0.43 0.49 0.46 0.43 0.33
0.15 0.14 0.13 0.11 0.10 0.10 0.09 0.09 0.08 0.06 0.05 0.04 0.03 0.03 0.03 0.02 0.00 0.00 0.00 0.01 0.05 0.09 0.12 0.09 0.06 0.05 0.08 0.12 0.16 0.21 0.26 0.36 0.49 0.57 0.54 0.40 0.40 0.46 0.54 0.58 0.46 0.44 0.42
0.14 0.13 0.11 0.09 0.08 0.08 0.07 0.05 0.04 0.03 0.03 0.03 0.02 0.02 0.02 0.01 0.00 0.00 0.00 0.01 0.05 0.07 0.08 0.08 0.08 0.09 0.11 0.14 0.15 0.20 0.30 0.37 0.43 0.46 0.50 0.51 0.56 0.54 0.49 0.49 0.43 0.46 0.40
0.10 0.09 0.07 0.05 0.04 0.03 0.02 0.02 0.02 0.03 0.03 0.02 0.02 0.02 0.02 0.02 0.00 0.00 0.00 0.01 0.02 0.03 0.04 0.06 0.09 0.12 0.13 0.20 0.26 0.36 0.51 0.65 0.66 0.65 0.69 0.78 0.82 0.68 0.48 0.41 0.46 0.47 0.38
0.07 0.05 0.03 0.02 0.01 0.01 0.02 0.02 0.03 0.03 0.02 0.01 0.01 0.02 0.03 0.03 0.01 0.00 0.00 0.01 0.02 0.02 0.03 0.06 0.11 0.17 0.18 0.30 0.38 0.51 0.70 0.83 0.73 0.66 0.71 0.82 0.75 0.67 0.64 0.57 0.51 0.44 0.35
0.02 0.01 0.01 0.01 0.01 0.01 0.01 0.02 0.02 0.02 0.02 0.02 0.02 0.02 0.03 0.03 0.02 0.00 0.00 0.02 0.03 0.04 0.07 0.12 0.17 0.25 0.25 0.37 0.54 0.65 0.88 0.96 0.80 0.63 0.57 0.57 0.56 0.54 0.53 0.55 0.46 0.38 0.32
0.00 0.01 0.01 0.00 0.00 0.00 0.01 0.01 0.02 0.02 0.01 0.01 0.01 0.02 0.02 0.03 0.02 0.01 0.00 0.01 0.03 0.06 0.15 0.23 0.27 0.30 0.33 0.51 0.64 0.82 1.07 1.13 0.81 0.56 0.41 0.37 0.39 0.43 0.45 0.39 0.32 0.27 0.26
0.01 0.01 0.01 0.00 0.00 0.00 0.01 0.01 0.01 0.01 0.01 0.01 0.01 0.02 0.02 0.02 0.02 0.01 0.01 0.01 0.03 0.08 0.19 0.36 0.38 0.35 0.51 0.72 0.91 1.05 1.17 1.07 0.78 0.52 0.38 0.33 0.31 0.31 0.33 0.33 0.30 0.24 0.23
0.00 0.01 0.01 0.00 0.00 0.00 0.00 0.00 0.01 0.01 0.01 0.02 0.03 0.03 0.03 0.03 0.03 0.03 0.03 0.04 0.06 0.08 0.16 0.31 0.44 0.48 0.64 0.88 1.04 1.11 1.11 1.01 0.80 0.54 0.41 0.35 0.31 0.30 0.31 0.29 0.27 0.24 0.24
0.00 0.01 0.01 0.00 0.00 0.00 0.01 0.00 0.01 0.01 0.01 0.02 0.04 0.05 0.06 0.06 0.04 0.05 0.07 0.08 0.10 0.13 0.18 0.23 0.31 0.43 0.62 0.80 0.91 0.94 0.90 0.85 0.76 0.56 0.44 0.39 0.37 0.34 0.34 0.30 0.26 0.23 0.25
0.01 0.01 0.00 0.00 0.00 0.00 0.01 0.01 0.00 0.00 0.01 0.01 0.03 0.05 0.05 0.05 0.04 0.03 0.06 0.09 0.13 0.17 0.20 0.28 0.41 0.53 0.68 0.79 0.85 0.83 0.77 0.71 0.63 0.52 0.45 0.41 0.37 0.35 0.34 0.29 0.23 0.21 0.24
0.00 0.00 0.00 0.00 0.00 0.00 0.01 0.02 0.03 0.02 0.02 0.02 0.02 0.03 0.04 0.03 0.03 0.03 0.05 0.08 0.11 0.15 0.20 0.33 0.47 0.60 0.72 0.76 0.77 0.73 0.69 0.63 0.54 0.45 0.41 0.37 0.33 0.30 0.27 0.24 0.21 0.20 0.20
0.00 0.00 0.00 0.00 0.00 0.00 0.01 0.02 0.03 0.04 0.05 0.05 0.03 0.02 0.02 0.03 0.04 0.04 0.05 0.06 0.08 0.14 0.25 0.38 0.49 0.56 0.65 0.69 0.68 0.67 0.62 0.55 0.47 0.41 0.39 0.36 0.31 0.26 0.23 0.20 0.18 0.16 0.14
0.00 0.00 0.00 0.00 0.00 0.00 0.01 0.01 0.02 0.03 0.03 0.04 0.04 0.03 0.04 0.05 0.06 0.07 0.08 0.08 0.15 0.22 0.30 0.38 0.44 0.49 0.53 0.56 0.55 0.53 0.50 0.46 0.41 0.36 0.35 0.34 0.32 0.26 0.20 0.15 0.12 0.11 0.09
0.00 0.00 0.00 0.00 0.00 0.00 0.01 0.01 0.01 0.02 0.03 0.05 0.06 0.06 0.06 0.09 0.09 0.10 0.10 0.11 0.16 0.23 0.30 0.38 0.41 0.40 0.39 0.41 0.40 0.37 0.35 0.35 0.33 0.32 0.32 0.30 0.28 0.22 0.16 0.12 0.09 0.08 0.07
0.00 0.00 0.00 0.00 0.00 0.00 0.00 0.01 0.01 0.01 0.03 0.04 0.06 0.08 0.13 0.14 0.17 0.18 0.18 0.20 0.23 0.26 0.29 0.32 0.34 0.35 0.31 0.29 0.29 0.29 0.29 0.30 0.28 0.28 0.28 0.26 0.23 0.18 0.13 0.09 0.06 0.04 0.04
0.00 0.00 0.00 0.00 0.00 0.00 0.00 0.00 0.00 0.01 0.02 0.03 0.04 0.06 0.14 0.15 0.18 0.22 0.25 0.28 0.29 0.30 0.29 0.29 0.28 0.29 0.30 0.29 0.27 0.26 0.27 0.27 0.27 0.26 0.25 0.22 0.19 0.15 0.11 0.07 0.04 0.03 0.02
0.00 0.00 0.00 0.00 0.00 0.00 0.00 0.00 0.00 0.00 0.01 0.02 0.03 0.05 0.08 0.14 0.21 0.28 0.32 0.33 0.32 0.30 0.27 0.24 0.26 0.28 0.27 0.25 0.24 0.24 0.23 0.24 0.26 0.25 0.24 0.20 0.16 0.12 0.09 0.06 0.04 0.02 0.02
0.00 0.00 0.00 0.00 0.00 0.00 0.00 0.00 0.00 0.00 0.01 0.01 0.02 0.04 0.07 0.13 0.19 0.28 0.34 0.37 0.38 0.37 0.34 0.30 0.28 0.27 0.25 0.23 0.23 0.22 0.18 0.19 0.21 0.23 0.22 0.17 0.12 0.09 0.06 0.04 0.03 0.02 0.01
0.00 0.00 0.00 0.00 0.00 0.00 0.00 0.00 0.00 0.00 0.00 0.01 0.01 0.03 0.05 0.08 0.13 0.19 0.25 0.31 0.36 0.41 0.41 0.39 0.35 0.30 0.25 0.21 0.17 0.14 0.16 0.19 0.17 0.16 0.19 0.15 0.09 0.07 0.05 0.04 0.02 0.02 0.01
0.00 0.00 0.00 0.00 0.00 0.00 0.00 0.00 0.00 0.00 0.00 0.00 0.01 0.02 0.03 0.06 0.09 0.12 0.16 0.19 0.23 0.30 0.35 0.40 0.41 0.33 0.24 0.19 0.17 0.16 0.14 0.10 0.07 0.06 0.15 0.15 0.10 0.07 0.05 0.03 0.02 0.01 0.01